Location: Vihti�l�
(61.3833°N, 23.0667°E)
Time: 04:45:14
(UTC+00:00)

Cosmos 1633 Rocket - Pass Details

Date: 29 November 2020
Orbit: 607 x 624 km, 82.5° (Epoch: 22 January)

Event Time Altitude Azimuth Distance (km) Brightness Sun altitude
Rises 05:50:47 0° 201° (SSW) 2,901 6.6 -8.3°
Reaches altitude 10° 05:53:02 10° 205° (SSW) 1,998 5.8 -8.0°
Maximum altitude 05:57:27 67° 288° (WNW) 681 3.1 -7.6°
Drops below altitude 10° 06:01:52 10° 12° (NNE) 2,005 5.5 -7.1°
Sets 06:04:08 0° 15° (NNE) 2,913 6.3 -6.9°
